Location: ????????
(54.9045°N, 39.1041°E)
Time: 11:11:16
(UTC+00:00)

Cosmos 1536 - Pass Details

Date: 14 April 2024
Orbit: 514 x 542 km, 82.6° (Epoch: 22 May)

Event Time Altitude Azimuth Distance (km) Brightness Sun altitude
Rises 00:28:54 0° 343° (NNW) 2,684 6.7 -14.9°
Reaches altitude 10° 00:31:09 10° 335° (NNW) 1,783 5.6 -14.6°
Maximum altitude 00:34:47 38° 267° (W) 809 3.3 -14.2°
Enters shadow 00:36:31 24° 216° (SW) 1,104 3.8 -14.1°
